Terug naar catalogus

SL-8 R/B

ActiefPO
NORAD 15752·ROCKET BODY·🇷🇺 Russia

Gelanceerd May 30, 1985 vanaf Plesetsk Cosmodrome

Loading…

Volgende Passages (komende 24 uur)

TLE

VersSource: Space-Track

Epoch: Sep 14, 2026, 04:16 UTC

1 15752U 85041B   26257.17819177  .00000052  00000-0  39295-4 0  9990
2 15752  82.9541 335.9701 0025354 100.0203 260.3815 13.73359967 68938

Volg SL-8 R/B in realtime met AllMySat

Download on the App Store